[[{"header":{"parameterUnit":"m.s-1","parameterCategory":1,"la1":30.2991,"la2":30.254,"lo1":-89.0895,"lo2":-89.0444,"dy":0.0017,"dx":0.0017,"nx":28,"ny":28,"refTime":"2025-11-09T09:00:00:Z","depth":0,"parameterNumber":2,"parameterNumberName":"U-component_of_WINDS"},"data":[0,0,0,0,0,0,0,0,0,0,0,0,0,0,0,0,0,0,0,0,0,0,0,0,0,0,0,0,0,0,0,0,0,0,0,0,0,0,0,0,0,0,0,0,0,0,0,0,0,0,0,0,0,0,0,0,0,0,2.2685,2.2685,0,2.2689,2.2689,2.2689,2.2675,2.2675,2.2674,2.2674,2.2677,2.2678,2.2678,0,0,0,0,0,0,0,0,0,0,0,0,0,2.2665,2.2666,2.2685,2.2685,2.2685,2.2689,2.2689,2.2689,2.2675,2.2675,2.2674,2.2674,2.2677,2.2678,2.2678,0,0,0,0,0,0,0,0,0,0,0,0,0,2.2672,2.2666,2.2685,2.2679,2.2678,2.2689,2.2689,2.2689,2.2675,2.2675,2.2674,2.2674,2.2677,2.2678,2.2678,2.2695,0,0,2.268,2.2681,0,0,0,0,0,0,0,0,2.2672,2.2673,2.2679,2.2679,2.2678,2.2681,2.2683,2.2691,2.2676,2.2676,2.2674,2.2673,2.2679,2.2679,2.2681,2.2695,2.2695,2.268,2.2681,2.2681,2.2681,0,0,0,0,0,0,0,2.2671,2.2672,2.2686,2.268,2.2679,2.2676,2.2676,2.2685,2.2681,2.2676,2.2675,2.2676,2.2678,2.2681,2.2681,2.2695,2.268,2.2681,2.2681,2.2682,2.2723,2.2724,0,0,0,0,0,0,2.2671,2.2672,2.2686,2.2686,2.2673,2.2676,2.2677,2.2681,2.2681,2.268,2.2677,2.2675,2.268,2.2681,2.2681,2.2701,2.2681,2.2682,2.2682,2.2722,2.2723,2.2724,0,0,0,0,0,0,2.2671,2.2673,2.2686,2.2679,2.268,2.2677,2.2682,2.2681,2.2683,2.2681,2.268,2.268,2.2679,2.268,2.2692,2.2701,2.2682,2.2683,2.2722,2.2723,2.2724,2.274,0,0,0,0,0,0,2.2671,2.2673,2.2679,2.2679,2.2681,2.2696,2.2683,2.2682,2.2685,2.2683,2.2684,2.2683,2.2679,2.2691,2.2692,2.2701,2.2683,2.2721,2.2722,2.2723,2.2738,2.2741,2.2743,0,0,0,0,0,2.267,2.2683,2.2679,2.2681,2.2688,2.2697,2.2698,2.2693,2.2686,2.2692,2.269,2.2683,2.27,2.2692,2.2694,2.2703,2.272,2.2722,2.2723,2.2737,2.274,2.2743,0,0,0,0,0,0,2.2682,2.2683,2.2679,2.2692,2.2695,2.2694,2.2702,2.2697,2.2701,2.2699,2.2693,2.2693,2.2706,2.2706,2.2697,2.2719,2.2709,2.2711,2.2719,2.2722,2.2724,2.2724,2.2684,0,0,0,0,0,2.2687,2.2694,2.2694,2.2706,2.2707,2.2704,2.2708,2.2704,2.2706,2.2707,2.2707,2.2709,2.2715,2.2719,2.2724,2.2739,2.2739,2.2746,2.2749,2.2751,2.2752,2.276,2.2764,2.2729,2.2729,2.2729,0,0,2.2696,2.2697,2.2701,2.2708,2.271,2.2717,2.2705,2.2713,2.2718,2.2708,2.2719,2.2719,2.2721,2.2735,2.274,2.2735,2.2762,2.2753,2.2755,2.2755,2.2762,2.2766,2.2769,2.273,2.273,2.273,0,0,2.2716,2.2717,2.2728,2.273,2.2733,2.2731,2.2734,2.2735,2.2735,2.2746,2.2738,2.2745,2.2755,2.2757,2.2759,2.2782,2.2775,2.2784,2.2797,2.2805,2.2808,2.281,2.2818,2.2821,2.2786,2.2786,2.2786,0,2.2726,2.2737,2.2733,2.2742,2.2745,2.2738,2.2748,2.2751,2.2755,2.2757,2.2751,2.2765,2.2766,2.2779,2.2785,2.2788,2.279,2.2783,2.2808,2.281,2.2812,2.282,2.2823,2.2787,2.2787,2.2787,2.2786,0,2.275,2.2757,2.2765,2.277,2.2775,2.2784,2.2782,2.2787,2.2784,2.2783,2.2795,2.2796,2.2802,2.2805,2.2802,2.2819,2.2815,2.2809,2.2798,2.2817,2.2823,2.2826,2.2788,2.2788,2.2788,2.2787,0,0,2.2775,2.278,2.2783,2.2785,2.2789,2.2795,2.2805,2.2811,2.2815,2.2819,2.2827,2.2836,2.2831,2.2834,2.2831,2.2838,2.2856,2.2831,2.2831,2.2835,2.2875,2.2878,2.2882,2.2852,2.2853,2.2853,2.2874,0,2.2794,2.2811,2.2809,2.2824,2.2832,2.2826,2.2835,2.2838,2.2838,2.2844,2.2844,2.2851,2.2844,2.2845,2.2852,2.2852,2.2864,2.2851,2.2859,2.2859,2.2857,2.2885,2.2889,2.2909,2.2877,2.2877,2.2878,0,2.2818,2.2823,2.284,2.2844,2.2847,2.2854,2.286,2.2867,2.2871,2.287,2.2874,2.2871,2.2881,2.2871,2.2884,2.2876,2.2879,2.288,2.2881,2.288,2.2868,2.2884,2.2915,2.2917,2.2882,2.2881,2.2881,0,2.2834,2.2846,2.2857,2.286,2.2865,2.287,2.2872,2.2876,2.288,2.2886,2.2888,2.2895,2.2898,2.2903,2.2902,2.2895,2.2916,2.2905,2.2915,2.2915,2.2918,2.2918,2.2948,2.2923,2.2923,2.2923,2.2922,0,2.2854,2.2864,2.2865,2.2872,2.2884,2.2882,2.2893,2.2895,2.2899,2.2906,2.2902,2.2909,2.2906,2.2913,2.2912,2.2923,2.2925,2.2925,2.2924,2.2925,2.2924,2.2926,2.2924,2.2923,2.2923,2.2923,2.2923,0,2.2873,2.2874,2.2886,2.289,2.2892,2.29,2.2904,2.291,2.2911,2.2921,2.2923,2.2924,2.2932,2.2931,2.294,2.2939,2.2953,2.2951,2.2952,2.2951,2.296,2.2959,2.2991,2.2995,2.2968,2.2968,2.2969,0,2.2885,2.2893,2.2899,2.2904,2.2907,2.2915,2.2919,2.2919,2.2924,2.293,2.2936,2.2944,2.295,2.2963,2.2964,2.2972,2.2969,2.298,2.297,2.297,2.2968,2.2967,2.2968,2.2982,2.2982,2.2982,2.2982,0,2.2907,2.2908,2.2915,2.2922,2.2928,2.2934,2.2939,2.2944,2.2944,2.295,2.2958,2.2963,2.2973,2.2981,2.2988,2.299,2.2986,2.2986,2.2988,2.2988,2.2988,2.2987,2.2956,2.2985,2.2985,2.2984,2.2984,2.2984,2.2922,2.2929,2.2935,2.2943,2.2948,2.2953,2.296,2.2962,2.297,2.2978,2.2977,2.2987,2.2992,2.3001,2.3004,2.3012,2.3007,2.3011,2.3012,2.3012,2.3013,2.2988,2.3013,2.3013,2.3013,2.3013,2.3013,0,2.2943,2.2947,2.2955,2.2963,2.297,2.2967,2.2973,2.2979,2.2988,2.2993,2.3,2.301,2.3018,2.3021,2.3029,2.3034,2.3033,2.3036,2.3035,2.3036,2.3017,2.3013,2.3037,2.3037,2.3037,2.3037,2.3037,2.3037,2.2955,2.2966,2.2968,2.2982,2.2986,2.2996,2.3,2.3005,2.3009,2.3021,2.3028,2.303,2.3035,2.3043,2.305,2.3051,2.3054,2.3058,2.3057,2.3039,2.3037,2.3034,2.3031,2.3059,2.3059,2.3076,2.3076,2.3076]},{"header":{"parameterUnit":"m.s-1","parameterCategory":1,"la1":30.2991,"la2":30.254,"lo1":-89.0895,"lo2":-89.0444,"dy":0.0017,"dx":0.0017,"nx":28,"ny":28,"refTime":"2025-11-09T09:00:00:Z","depth":0,"parameterNumber":3,"parameterNumberName":"V-component_of_WINDS"},"data":[0,0,0,0,0,0,0,0,0,0,0,0,0,0,0,0,0,0,0,0,0,0,0,0,0,0,0,0,0,0,0,0,0,0,0,0,0,0,0,0,0,0,0,0,0,0,0,0,0,0,0,0,0,0,0,0,0,0,-8.549,-8.5492,0,-8.5685,-8.5687,-8.569,-8.5577,-8.5572,-8.5566,-8.5561,-8.5755,-8.5765,-8.5775,0,0,0,0,0,0,0,0,0,0,0,0,0,-8.5012,-8.5021,-8.5489,-8.5492,-8.5494,-8.5685,-8.5688,-8.569,-8.5578,-8.5571,-8.5565,-8.5559,-8.5752,-8.5764,-8.5776,0,0,0,0,0,0,0,0,0,0,0,0,0,-8.5215,-8.5024,-8.5489,-8.5461,-8.5461,-8.5684,-8.5688,-8.5691,-8.558,-8.5571,-8.5563,-8.5555,-8.5748,-8.5763,-8.5778,-8.6037,0,0,-8.5825,-8.5832,0,0,0,0,0,0,0,0,-8.5203,-8.5232,-8.5463,-8.5464,-8.5464,-8.5599,-8.559,-8.5807,-8.5582,-8.5534,-8.5561,-8.5551,-8.5709,-8.5727,-8.5782,-8.6046,-8.6055,-8.5826,-8.5836,-8.5842,-8.5847,0,0,0,0,0,0,0,-8.5189,-8.5223,-8.5566,-8.5466,-8.5467,-8.5437,-8.5457,-8.5631,-8.5665,-8.5538,-8.553,-8.5555,-8.5708,-8.5767,-8.5785,-8.6058,-8.5826,-8.5839,-8.5849,-8.5855,-8.6545,-8.6553,0,0,0,0,0,0,-8.5178,-8.5212,-8.556,-8.5572,-8.5311,-8.5453,-8.5475,-8.5563,-8.5663,-8.5671,-8.5562,-8.5549,-8.5745,-8.5768,-8.5792,-8.6103,-8.5842,-8.5857,-8.5865,-8.6536,-8.6547,-8.6556,0,0,0,0,0,0,-8.5168,-8.521,-8.5552,-8.5391,-8.5432,-8.547,-8.557,-8.5572,-8.5631,-8.5682,-8.5686,-8.5617,-8.5739,-8.577,-8.5978,-8.6108,-8.5863,-8.5877,-8.6525,-8.6539,-8.6551,-8.6726,0,0,0,0,0,0,-8.5155,-8.5207,-8.5308,-8.5394,-8.5441,-8.5738,-8.5578,-8.5581,-8.5659,-8.5644,-8.5734,-8.5741,-8.5735,-8.5955,-8.5993,-8.6125,-8.589,-8.6513,-8.6531,-8.6547,-8.6709,-8.6744,-8.6774,0,0,0,0,0,-8.5138,-8.5348,-8.5314,-8.5356,-8.5568,-8.5745,-8.5772,-8.5763,-8.567,-8.577,-8.5802,-8.5738,-8.6087,-8.5977,-8.6019,-8.6157,-8.6505,-8.6526,-8.6546,-8.6694,-8.6737,-8.6773,0,0,0,0,0,0,-8.5274,-8.5359,-8.5322,-8.5565,-8.565,-8.5726,-8.5852,-8.5808,-8.5918,-8.59,-8.5881,-8.5903,-8.6119,-8.6158,-8.6034,-8.6413,-8.6281,-8.6311,-8.638,-8.6421,-8.6453,-8.6439,-8.5902,0,0,0,0,0,-8.5333,-8.5472,-8.5537,-8.5746,-8.579,-8.5815,-8.5891,-8.5877,-8.5962,-8.5997,-8.6044,-8.6127,-8.6255,-8.634,-8.6461,-8.6714,-8.6731,-8.6829,-8.6862,-8.6888,-8.6914,-8.7051,-8.7095,-8.6623,-8.6623,-8.6623,0,0,-8.5455,-8.5518,-8.5607,-8.5775,-8.5838,-8.5981,-8.5845,-8.6002,-8.6107,-8.6019,-8.6219,-8.6257,-8.6348,-8.658,-8.6684,-8.6619,-8.7048,-8.6914,-8.6935,-8.6947,-8.7076,-8.7121,-8.716,-8.6637,-8.6635,-8.6633,0,0,-8.575,-8.5813,-8.5994,-8.6061,-8.6159,-8.6174,-8.6217,-8.6301,-8.6324,-8.6524,-8.6462,-8.6585,-8.6807,-8.6875,-8.6938,-8.726,-8.7205,-8.73,-8.747,-8.7603,-8.7641,-8.7673,-8.7788,-8.783,-8.7325,-8.7326,-8.7326,0,-8.5889,-8.6104,-8.6092,-8.6254,-8.633,-8.6259,-8.6442,-8.6506,-8.6638,-8.6691,-8.6617,-8.6894,-8.6951,-8.7197,-8.7276,-8.733,-8.7378,-8.729,-8.7637,-8.7669,-8.77,-8.7809,-8.7852,-8.7337,-8.7335,-8.7334,-8.7333,0,-8.627,-8.642,-8.6553,-8.6686,-8.6776,-8.6947,-8.6959,-8.7052,-8.703,-8.7052,-8.7256,-8.7322,-8.7455,-8.7512,-8.7491,-8.7756,-8.7713,-8.7639,-8.7506,-8.7756,-8.7858,-8.79,-8.7352,-8.7348,-8.7345,-8.7342,0,0,-8.6656,-8.678,-8.683,-8.6889,-8.6993,-8.7107,-8.7274,-8.7407,-8.7487,-8.758,-8.7719,-8.7909,-8.7841,-8.7913,-8.7898,-8.8016,-8.8267,-8.7926,-8.7928,-8.7988,-8.8563,-8.8619,-8.8667,-8.8231,-8.8239,-8.8245,-8.8555,0,-8.6959,-8.7255,-8.7248,-8.7522,-8.766,-8.7595,-8.7741,-8.7819,-8.7844,-8.7963,-8.7989,-8.8124,-8.8024,-8.8068,-8.818,-8.8212,-8.8382,-8.819,-8.8359,-8.8365,-8.8339,-8.8721,-8.8781,-8.907,-8.8595,-8.8602,-8.8607,0,-8.7351,-8.7461,-8.7749,-8.7833,-8.789,-8.8022,-8.8143,-8.8258,-8.8344,-8.8354,-8.8436,-8.8403,-8.8571,-8.8434,-8.8665,-8.8534,-8.8603,-8.8629,-8.864,-8.8655,-8.8501,-8.8747,-8.9162,-8.9206,-8.8669,-8.8664,-8.866,0,-8.7605,-8.7824,-8.8025,-8.8077,-8.818,-8.8274,-8.832,-8.8399,-8.8479,-8.8584,-8.8636,-8.8758,-8.8825,-8.8919,-8.892,-8.882,-8.9153,-8.9016,-8.9165,-8.9166,-8.9239,-8.9234,-8.9671,-8.9283,-8.9282,-8.9281,-8.928,0,-8.7944,-8.8123,-8.814,-8.8264,-8.8462,-8.8452,-8.8648,-8.8685,-8.8756,-8.8884,-8.8834,-8.8955,-8.8949,-8.9071,-8.9072,-8.9263,-8.9293,-8.9304,-8.9303,-8.931,-8.9308,-8.9354,-8.9335,-8.9293,-8.929,-8.9288,-8.9286,0,-8.8261,-8.828,-8.8495,-8.8575,-8.8599,-8.8742,-8.8809,-8.8926,-8.8946,-8.911,-8.9147,-8.9179,-8.932,-8.933,-8.9492,-8.9493,-8.9725,-8.9701,-8.9697,-8.9693,-8.9842,-8.9828,-9.0324,-9.0388,-8.9958,-8.9962,-8.9965,0,-8.8476,-8.8613,-8.8709,-8.8792,-8.8845,-8.898,-8.9062,-8.9057,-8.9144,-8.9254,-8.9357,-8.9494,-8.9603,-8.9832,-8.9868,-8.9992,-8.997,-9.0135,-8.9988,-8.9991,-8.9973,-8.9965,-8.9979,-9.0164,-9.0169,-9.0173,-9.0176,0,-8.8857,-8.886,-8.8981,-8.9107,-8.9207,-8.9305,-8.9396,-8.9467,-8.9472,-8.9572,-8.9718,-8.9803,-8.997,-9.0106,-9.0227,-9.0272,-9.0226,-9.0222,-9.0263,-9.0272,-9.0264,-9.0271,-8.9775,-9.0211,-9.0207,-9.0205,-9.0203,-9.0201,-8.913,-8.9248,-8.9335,-8.9472,-8.954,-8.9627,-8.9741,-8.9777,-8.9898,-9.0036,-9.0024,-9.0185,-9.0267,-9.0426,-9.0481,-9.0605,-9.0549,-9.0608,-9.0623,-9.0638,-9.0655,-9.0245,-9.0627,-9.0626,-9.0625,-9.0624,-9.0623,0,-8.9508,-8.956,-8.9687,-8.9817,-8.9925,-8.9874,-8.9972,-9.0065,-9.0208,-9.0289,-9.0399,-9.0565,-9.0697,-9.0744,-9.0872,-9.0963,-9.0944,-9.0996,-9.099,-9.1001,-9.0697,-9.0649,-9.1009,-9.1009,-9.1009,-9.1009,-9.1009,-9.1009,-8.9718,-8.9916,-8.9929,-9.016,-9.021,-9.0369,-9.043,-9.0509,-9.0575,-9.0764,-9.0874,-9.0905,-9.0973,-9.1105,-9.1223,-9.1233,-9.1283,-9.1345,-9.1346,-9.1061,-9.1022,-9.0985,-9.094,-9.1355,-9.1356,-9.1639,-9.1642,-9.1644]}]]